Japanese version Home page |
Updated on January 10, 2025 |
|
Orbital ElementsEpoch 2024 Oct. 17.0 TT = JDT 2460600.5 T 2024 Sept. 27.74098 TT Rudenko q 0.3914134 (2000.0) P Q z -0.0002396 Peri. 308.49328 +0.36145095 +0.90082802 +/-0.0000007 Node 21.55950 +0.91852620 -0.29969682 e 1.0000938 Incl. 139.11040 -0.16019624 +0.31415074 From 5300 observations 2022 Apr. 9-2024 Sept. 30, mean residual 0".7.
|
Finding Charts
|
Magnitudes Graphm1 = -17.0 + 5 log d + 35 log r [ ,-575] ( - 2023 Mar. 2) m1 = 4.5 + 5 log d + 10.0 log r [-575,-247] (2023 Mar. 2 - 2024 Jan. 24) m1 = 6.0 + 5 log d + 7.5 log r [-247, 0] (2024 Jan. 24 - 2024 Sept.27) m1 = 23.5 + 5 log d + 60 log r(t - 9) [ 0, 19] (2024 Sept.27 - 2024 Oct. 16) m1 = 6.0 + 5 log d + 7.5 log r [ 19, 247] (2024 Oct. 16 - 2025 June 1) m1 = 4.5 + 5 log d + 10.0 log r [ 247, ] (2025 June 1 - )
|
The orbital elements are published on M.P.E.C. 2024-T42.
|